Location: Dana
(41.8364°N, 106.7042°W)
Time: 13:29:05
(UTC+00:00)

Transit 4A - Pass Details

Date: 17 May 2026
Orbit: 860 x 980 km, 66.8° (Epoch: 7 June)

Event Time Altitude Azimuth Distance (km) Brightness Sun altitude
Rises 21:21:11 0° 337° (NNW) 3,682 11.0 53.3°
Reaches altitude 10° 21:24:48 10° 356° (N) 2,739 10.3 52.7°
Maximum altitude 21:28:54 17° 36° (NE) 2,252 9.8 52.0°
Drops below altitude 10° 21:32:57 10° 76° (ENE) 2,728 10.1 51.3°
Sets 21:36:31 0° 96° (E) 3,662 10.7 50.7°
